Theta_e
290 290 290 292 291 290 290 290 289 289 290 290 288 289 290 290 286 285 291 293 292 295 306 313 315 318 318 320 321 317 317 316 316 316 315 316 317 320 321 323 325 327 328 330 335 342 344 344 343 344 345 346 346 346 346 347 349 351 352 351 351 350 349 348 347 347 347 346 345 343 343 342 342 341 340 339 338 338 338 338 339 340 342 343 345 346 346
289 290 290 292 290 290 290 289 290 290 290 289 290 290 291 291 289 292 293 294 296 302 310 313 316 318 317 318 322 320 316 315 315 315 314 314 315 316 317 320 322 323 325 326 328 330 332 335 339 344 346 345 345 346 346 347 348 351 353 352 352 351 351 350 350 350 349 349 347 346 344 342 341 341 340 340 339 339 338 339 339 341 342 343 345 346 346
286 289 291 290 290 289 288 290 291 291 291 291 291 291 291 294 292 293 293 293 295 308 311 313 316 315 314 314 315 317 315 315 314 313 314 313 314 315 316 317 319 320 321 323 325 326 328 330 333 336 340 345 348 347 347 347 348 352 354 353 353 353 352 353 353 353 352 351 350 348 346 345 343 342 341 341 340 340 340 340 341 341 343 343 345 346 347
283 288 289 289 291 291 289 288 289 289 289 288 289 289 292 293 291 292 293 294 298 304 309 312 312 311 310 310 311 313 314 314 315 312 312 313 312 313 314 316 317 317 318 319 321 323 326 330 331 332 336 341 346 348 348 348 349 350 352 353 354 354 355 355 355 354 354 353 351 350 349 347 346 344 343 342 341 340 341 341 343 344 344 344 345 347 348
280 287 290 289 289 287 284 285 288 292 293 293 297 299 302 301 300 294 292 293 302 304 307 305 306 309 309 309 309 309 312 314 314 311 311 312 313 312 314 316 318 316 317 318 320 321 324 328 330 332 335 339 343 346 348 349 349 349 350 351 352 354 355 356 356 356 355 354 353 352 351 350 349 347 345 343 342 342 341 343 344 345 345 345 346 347 348
281 288 288 290 284 276 279 290 301 300 297 297 296 296 299 300 301 299 302 301 302 303 303 303 303 306 307 308 310 312 311 312 312 313 311 311 313 313 313 314 316 318 317 318 320 321 323 326 329 334 336 339 339 347 349 349 349 349 349 349 350 351 353 355 356 356 356 354 353 353 352 351 350 349 347 345 345 344 344 344 345 346 346 346 347 347 348
281 286 287 282 275 278 289 295 303 302 302 300 299 298 299 300 301 301 300 300 301 302 303 303 304 306 311 308 308 308 311 312 312 312 312 311 312 310 311 312 314 315 317 318 319 321 324 326 328 331 332 332 334 337 341 347 348 348 349 348 348 349 349 351 354 356 356 355 354 353 353 352 351 350 349 347 346 346 346 345 345 346 347 347 347 348 349
285 282 280 271 276 288 293 294 302 303 302 300 299 297 298 299 299 299 298 300 301 302 302 304 305 306 308 309 308 307 308 311 311 312 312 313 312 310 310 311 313 314 314 317 318 321 326 325 326 328 328 330 333 333 337 338 346 346 348 347 348 348 348 350 351 354 356 356 355 354 353 352 351 351 350 349 348 347 348 347 347 348 349 349 349 349 349
278 281 279 281 287 287 289 290 295 296 293 294 294 288 293 297 299 299 298 299 300 301 302 303 304 306 308 307 305 307 308 309 311 314 315 315 315 313 312 312 312 314 315 316 317 320 320 322 323 326 327 328 328 330 332 336 340 345 346 346 347 347 348 348 350 352 355 356 356 355 354 352 351 351 351 350 350 350 348 348 347 348 349 350 351 350 350
286 282 278 275 278 275 283 294 299 301 300 300 301 296 292 298 298 300 299 298 299 300 301 301 303 305 304 305 302 305 307 309 309 312 316 316 316 316 316 313 313 313 315 316 318 318 318 319 321 323 325 326 327 328 330 334 337 341 345 345 347 348 348 349 349 350 354 356 356 355 354 353 352 352 352 352 351 351 349 348 348 349 350 351 352 352 351
283 282 279 278 275 279 287 291 296 298 299 300 300 295 289 297 297 299 300 298 299 299 299 300 302 300 297 298 300 304 306 307 309 309 314 316 316 317 316 314 312 313 314 316 318 318 317 318 319 321 323 325 326 326 329 331 334 337 340 345 346 347 349 350 350 350 353 356 357 356 355 354 354 353 353 352 352 352 351 350 349 350 351 351 352 352 352
285 284 281 278 281 278 290 294 297 298 300 302 293 283 286 297 297 298 299 298 299 299 300 301 299 297 294 296 299 305 306 308 309 309 310 312 315 316 317 317 315 314 316 316 316 315 315 316 319 320 322 323 324 326 327 329 330 332 337 342 347 349 348 350 351 351 353 355 357 356 355 355 355 354 355 354 353 352 351 351 350 350 350 351 351 352 352
286 285 283 284 284 293 295 295 297 299 302 297 285 281 291 297 297 298 299 299 300 300 299 299 295 299 301 301 304 305 306 307 308 309 311 311 314 315 315 317 318 315 314 315 314 315 315 317 318 320 321 321 322 324 325 326 328 331 336 339 343 347 350 351 350 351 352 355 356 357 357 356 356 356 355 354 353 352 351 351 350 350 350 350 351 351 352
284 285 282 283 284 286 294 296 297 300 295 282 282 293 296 295 296 299 300 299 299 300 299 299 299 300 303 305 305 304 305 306 307 308 309 310 312 316 318 318 317 315 315 314 315 316 316 317 319 319 320 320 322 323 324 324 327 331 333 335 339 342 346 351 353 351 352 354 357 358 358 357 355 354 355 355 354 353 352 351 350 349 349 349 350 351 351
287 286 283 282 278 290 297 296 295 299 288 287 294 296 297 299 298 298 298 299 299 299 298 300 300 301 302 302 303 304 305 305 306 307 308 309 310 312 315 315 317 317 314 314 315 316 316 317 318 319 319 320 321 323 322 325 328 330 332 334 337 340 345 350 354 354 352 353 355 358 357 357 355 354 355 354 354 354 352 351 349 348 348 348 349 349 350
277 278 277 280 287 292 297 296 288 294 297 298 298 297 295 298 298 297 297 298 299 299 299 299 299 300 300 301 302 303 304 305 306 307 308 309 310 312 314 316 316 316 315 315 315 316 316 317 318 319 319 319 321 322 322 326 328 330 332 334 337 340 345 350 355 355 354 355 356 357 357 357 356 354 354 354 354 354 352 351 349 348 348 348 348 348 348
284 279 282 290 294 297 300 299 298 299 300 299 298 297 297 296 297 299 297 297 298 299 299 299 300 299 300 300 302 302 303 304 304 305 307 308 309 311 312 314 316 316 315 314 315 315 315 316 318 319 320 319 321 321 324 327 328 329 331 333 336 340 346 352 356 357 355 355 356 357 357 357 355 354 353 354 352 353 352 351 350 348 348 348 347 347 348
292 294 294 296 295 297 296 299 300 298 297 298 298 297 296 297 298 298 297 298 299 299 300 299 299 299 300 300 301 302 303 303 304 306 307 308 310 311 312 312 314 316 316 315 315 313 314 316 317 320 320 321 320 322 325 328 330 331 332 334 338 344 351 353 355 357 355 354 356 357 357 357 356 356 354 354 353 353 352 351 351 349 348 348 347 347 347
284 280 291 294 294 295 296 297 299 299 299 298 298 297 297 297 298 299 299 299 299 299 299 299 299 299 301 300 301 302 302 303 303 304 306 307 309 309 310 312 316 315 315 314 314 314 313 314 316 319 320 321 323 325 327 331 334 336 337 339 345 348 348 349 352 354 353 353 355 357 357 357 357 357 356 355 354 352 352 352 351 350 349 348 347 347 347
283 283 288 292 294 294 295 295 295 296 297 297 298 298 298 299 299 300 300 300 299 300 299 299 299 299 300 300 300 300 301 302 303 304 305 307 307 309 310 312 315 315 314 313 313 313 312 314 316 318 321 321 323 325 327 331 336 339 343 347 346 346 347 348 351 353 353 352 353 356 356 357 356 356 356 356 354 353 353 353 351 350 349 348 347 347 347
287 290 292 292 292 293 295 295 296 297 297 297 297 298 298 299 298 299 299 300 300 300 299 300 299 299 300 300 300 300 301 301 302 303 304 305 306 308 308 310 314 313 314 314 313 312 313 314 316 318 321 321 321 323 326 330 334 335 338 344 346 346 347 348 350 352 352 351 353 355 356 357 358 358 357 356 355 355 357 357 355 353 352 351 351 351 350
283 284 287 290 285 285 290 293 295 297 298 298 297 297 297 298 298 298 298 299 300 300 300 300 300 299 299 300 301 300 301 301 301 302 303 305 306 307 308 310 312 313 316 315 313 313 313 314 316 319 320 320 320 323 326 328 330 331 334 340 345 345 346 347 350 353 351 351 353 355 356 357 356 356 332 314 330 356 357 346 338 335 333 351 354 353 351
283 288 291 292 292 291 293 294 296 297 298 298 297 296 296 297 298 298 298 297 298 298 299 301 300 299 300 300 301 301 301 301 303 303 304 304 305 306 308 309 310 313 314 315 313 312 312 315 317 320 320 319 320 322 325 327 328 328 330 336 342 345 345 346 347 350 352 351 353 355 357 357 357 355 344 336 306 302 311 326 329 321 319 323 327 333 349
291 292 293 294 293 291 294 296 297 298 298 298 297 297 298 297 298 298 298 298 298 298 299 300 302 301 301 301 301 300 301 302 302 303 304 305 306 307 309 310 312 313 314 313 312 312 312 315 318 320 319 319 320 321 324 326 327 328 329 334 340 344 344 343 341 341 349 351 352 355 356 357 355 351 348 344 338 314 305 314 318 316 312 313 316 318 323
290 292 294 294 295 295 297 298 299 299 300 300 298 298 298 298 298 299 298 299 299 299 298 299 300 301 301 301 301 301 301 302 304 305 308 310 310 310 311 312 314 314 313 312 311 311 313 316 318 320 318 318 319 321 323 325 327 327 329 334 341 344 344 341 338 339 340 341 342 346 344 343 345 347 346 345 346 348 329 303 305 316 317 314 311 311 311
295 295 296 297 297 297 298 299 299 299 298 299 299 299 300 302 301 300 299 299 299 299 299 299 299 301 302 301 302 303 303 304 307 308 307 307 308 309 309 310 313 314 313 312 312 312 314 317 317 317 317 318 319 321 324 326 327 328 332 338 344 344 342 340 338 337 338 339 341 342 343 343 342 344 347 348 350 351 346 337 335 318 305 304 308 315 312
297 298 297 295 294 295 299 296 295 299 300 300 299 298 299 299 301 300 299 300 300 301 301 301 301 302 303 303 304 304 304 306 307 307 307 308 309 310 310 312 313 312 313 311 312 314 319 319 318 316 316 318 320 322 324 326 328 332 339 341 342 348 352 350 338 337 337 337 339 338 339 340 341 340 338 340 341 342 344 342 341 341 340 331 306 301 319
296 297 296 291 291 293 296 299 298 300 299 298 298 298 299 299 298 297 297 299 300 300 301 301 301 301 300 301 302 302 304 304 305 306 307 308 309 311 312 312 311 310 311 312 312 316 319 317 316 315 317 319 320 322 325 327 332 338 339 338 338 341 344 348 345 338 338 337 337 336 335 337 339 339 339 338 339 341 338 340 343 342 340 336 325 309 302
297 298 298 298 297 298 299 299 299 298 297 298 299 299 299 298 297 297 297 298 299 299 299 300 302 302 302 302 302 302 302 303 304 305 306 308 311 312 313 312 310 310 311 312 313 316 316 315 315 315 316 318 320 323 325 327 332 335 336 337 335 335 337 341 343 341 341 340 339 339 335 337 339 340 340 340 342 342 341 341 341 341 341 331 325 328 320
296 297 298 298 299 299 298 297 296 296 296 297 298 298 298 298 296 296 297 297 298 297 299 300 300 301 302 302 303 304 304 305 305 306 308 310 312 313 313 312 309 309 309 311 313 315 316 315 315 315 316 318 321 324 326 328 332 333 333 333 334 332 331 334 342 343 341 341 341 338 338 339 341 342 342 342 342 341 340 339 339 338 338 331 331 334 337
296 297 298 299 298 298 296 296 296 296 296 297 297 297 298 298 297 297 296 296 297 298 299 300 301 301 302 302 303 305 306 306 307 308 309 310 311 313 312 310 307 308 309 311 314 315 315 316 316 316 317 320 322 324 326 327 332 332 331 330 331 328 324 324 330 341 341 341 340 341 340 340 341 342 341 341 341 341 340 339 338 337 334 332 335 336 338
295 295 296 295 295 294 294 295 295 295 295 296 296 296 296 296 296 295 296 296 297 298 300 300 300 301 302 303 304 304 305 305 306 307 309 310 312 313 311 310 310 315 313 315 315 315 315 315 314 316 318 321 323 324 326 327 332 330 329 329 329 329 327 324 329 334 338 340 340 341 341 341 341 341 340 340 340 341 340 339 338 336 335 334 335 336 331
293 292 292 292 294 293 293 294 295 294 295 295 296 297 298 299 298 297 297 298 299 300 300 300 301 302 302 303 303 304 304 305 306 307 309 311 313 312 311 311 311 313 315 314 314 315 315 314 315 318 320 321 322 324 327 329 330 327 327 327 327 327 328 324 323 327 334 338 338 340 341 341 341 340 339 338 339 340 340 339 338 336 335 335 333 328 326
294 293 293 295 294 293 292 294 296 296 296 297 297 297 298 299 298 298 298 299 300 300 300 301 301 302 303 303 304 304 305 306 307 309 311 312 313 313 314 315 314 313 314 314 314 314 315 315 316 318 320 321 322 324 327 330 328 327 325 325 324 323 324 324 323 326 326 328 331 335 338 339 340 340 339 338 338 339 338 338 336 334 331 324 321 318 309
296 296 298 298 298 297 297 296 296 297 297 296 296 297 298 298 298 298 299 300 299 300 301 302 303 303 304 304 305 306 307 308 310 312 313 313 313 312 312 312 312 312 313 312 312 312 314 315 317 319 320 320 321 322 327 327 326 325 324 323 323 323 322 324 322 322 322 324 325 327 329 334 335 338 337 337 337 337 335 333 331 328 324 320 319 319 316
297 297 298 298 298 299 299 298 299 299 298 297 298 298 297 298 298 298 298 299 301 302 302 302 303 304 307 308 308 309 310 311 313 313 312 311 310 310 310 310 310 310 309 308 310 311 313 314 319 320 319 318 320 321 325 325 323 323 323 322 322 321 321 321 321 321 321 321 321 323 324 328 329 328 329 330 331 330 328 326 325 324 323 321 320 320 319
298 297 297 297 298 298 298 299 299 299 299 299 299 298 298 298 298 299 300 300 301 301 302 303 303 305 306 306 307 308 309 311 312 311 310 309 309 308 307 307 308 307 307 305 307 311 313 314 318 318 317 316 317 319 325 323 322 320 320 319 319 319 319 318 319 318 318 318 319 319 321 323 322 323 324 324 324 323 322 321 321 321 320 320 320 320 320
296 297 297 297 298 300 300 300 301 300 299 300 299 300 299 299 299 299 299 300 301 302 303 303 303 305 306 306 305 305 305 307 309 309 308 307 307 306 305 305 305 306 304 304 308 310 312 314 315 314 313 314 315 317 321 321 320 316 316 316 316 316 316 316 317 317 316 316 317 316 317 318 318 318 318 318 318 317 317 317 317 317 317 317 317 317 317
296 296 298 299 301 301 300 300 300 300 301 299 298 299 300 301 300 299 299 300 301 303 302 302 303 303 304 303 302 303 303 304 306 307 307 306 306 304 304 304 305 306 307 309 309 309 312 313 311 311 312 313 314 314 318 321 318 313 313 313 313 313 313 312 312 313 314 314 314 313 314 315 315 315 314 314 315 315 315 315 315 315 314 314 314 314 314
295 296 297 299 299 300 299 298 299 299 299 299 298 297 298 299 298 299 299 300 301 303 302 302 302 301 302 303 302 301 302 303 304 304 305 305 305 304 304 304 305 306 308 310 308 309 311 312 310 308 309 311 313 312 315 316 315 312 310 310 310 311 311 310 310 310 310 310 310 312 310 312 312 312 312 312 312 312 311 311 311 311 311 311 311 311 311
296 296 297 297 298 300 300 298 297 297 299 300 299 299 300 300 299 298 299 300 301 302 301 302 302 301 301 302 303 303 303 303 303 303 304 304 303 302 301 301 304 306 306 306 307 308 309 310 310 308 308 309 311 313 311 313 311 309 309 309 309 308 308 308 308 307 307 308 308 307 307 308 309 309 310 309 309 309 309 309 309 309 309 308 308 309 309
296 296 297 297 297 298 299 298 298 298 298 298 300 300 300 301 300 299 300 301 301 301 301 301 303 302 301 302 302 303 303 303 302 302 302 302 301 301 300 301 305 306 307 307 306 306 305 306 308 309 308 308 310 312 311 310 308 308 307 307 307 307 307 306 306 306 306 306 306 305 306 305 305 305 306 307 307 307 307 307 307 307 307 307 307 307 307
297 295 296 296 297 297 298 298 298 298 298 299 299 299 299 300 300 300 300 301 301 301 300 300 301 302 301 300 300 299 300 301 302 302 301 302 303 303 302 302 304 306 306 306 304 303 304 304 305 307 309 309 308 309 309 306 306 306 307 307 306 305 305 305 305 305 305 304 304 304 304 304 303 303 303 303 304 304 305 304 304 304 305 305 305 305 305
298 296 296 297 297 299 301 300 298 298 298 299 300 300 300 300 300 300 300 300 300 301 300 300 300 300 300 300 299 298 298 299 299 300 300 300 301 303 305 304 304 306 306 305 304 303 303 304 304 306 308 307 307 307 306 304 304 305 305 305 305 305 304 303 303 303 303 303 303 303 303 304 303 303 303 303 303 303 304 303 303 304 304 304 304 304 304
297 296 296 296 298 299 298 298 298 297 299 299 299 300 301 301 300 300 300 300 300 300 301 300 300 300 300 300 300 299 299 299 299 299 297 297 297 298 303 305 304 304 305 305 303 302 303 303 304 305 305 305 305 305 302 302 303 303 303 303 303 303 303 303 303 303 303 303 303 303 304 303 303 303 303 303 304 303 302 303 303 303 303 303 303 303 303
297 297 298 302 298 296 296 296 298 299 299 298 298 300 301 301 300 301 301 300 300 300 300 300 300 300 300 300 300 300 300 299 299 300 300 300 299 300 303 304 304 304 304 304 302 301 302 305 304 303 303 303 304 301 301 302 301 301 302 301 302 302 301 301 302 302 302 302 302 302 302 302 302 302 302 302 303 303 304 304 304 303 303 303 303 303 304
297 297 297 296 296 297 298 297 300 299 298 296 296 297 300 300 301 300 300 300 300 300 301 301 301 301 301 300 299 298 297 297 297 299 299 299 302 302 303 303 304 304 303 301 301 301 302 302 303 302 303 303 303 300 300 300 300 300 300 301 301 301 301 300 300 301 301 301 302 303 303 303 301 301 302 302 302 302 302 302 301 302 302 303 303 303 303
297 297 296 296 296 297 297 296 296 295 295 295 296 298 299 300 301 300 300 300 300 300 301 301 301 301 301 301 301 301 300 298 294 295 298 298 298 299 300 299 301 302 301 302 302 302 302 302 302 302 302 302 300 299 299 299 299 299 299 300 300 300 300 300 300 300 300 301 301 300 300 300 300 301 301 301 301 301 302 302 301 301 301 301 301 301 301
297 297 298 299 298 298 297 296 297 298 295 298 298 299 300 301 301 300 300 299 299 299 300 300 300 300 301 303 302 301 302 302 299 296 298 298 298 298 298 301 300 300 299 298 298 300 302 301 301 302 302 301 298 298 299 299 300 300 300 299 299 299 300 300 300 300 300 300 300 301 300 300 300 300 300 300 300 300 301 300 300 300 300 301 301 301 301
297 297 295 294 294 294 294 293 295 294 297 298 297 299 300 300 299 298 299 299 299 300 299 299 300 300 300 300 301 302 302 302 302 301 301 300 299 298 299 299 299 299 299 297 298 298 300 301 301 301 300 298 298 299 298 298 298 299 298 299 299 299 299 300 299 299 299 300 299 300 299 300 300 301 301 300 300 300 300 300 299 300 300 300 301 300 300
297 296 296 299 296 296 295 294 296 297 296 298 299 301 301 300 300 301 300 299 298 298 298 298 299 300 300 300 301 302 302 302 303 302 301 300 300 300 300 299 299 298 298 297 297 296 296 297 297 298 297 298 298 298 298 298 298 298 298 298 298 298 298 299 298 298 298 298 298 298 298 298 298 298 298 299 299 299 299 299 299 299 298 298 298 298 299
298 297 298 298 296 296 296 296 298 297 298 299 300 301 301 300 299 299 300 301 298 298 298 297 297 299 300 300 302 301 302 303 303 302 302 302 300 299 300 300 298 298 296 296 295 296 296 298 299 299 298 296 296 297 299 299 297 297 298 299 298 297 298 297 297 297 297 297 297 297 297 297 297 296 297 297 298 298 297 297 297 297 298 298 298 298 298
Wind_Speed
5 6 8 9 9 7 8 11 14 12 6 4 4 4 6 6 3 8 6 5 5 6 5 9 7 7 8 8 6 10 12 13 15 18 20 21 20 19 20 18 17 17 17 16 15 12 10 5 6 10 10 13 13 13 14 14 15 16 16 16 17 17 16 17 17 17 15 14 14 14 14 14 14 15 15 14 14 13 13 13 12 14 14 13 13 13 12
4 3 5 8 11 10 10 8 11 14 11 7 3 4 6 9 9 10 7 4 3 3 4 7 7 8 8 8 7 10 14 14 14 17 18 18 18 19 18 17 16 16 16 15 14 15 16 14 14 8 4 4 7 11 11 13 12 13 14 16 16 16 17 17 16 15 14 13 14 14 14 15 15 15 14 14 14 14 14 14 13 13 13 13 14 14 13
5 6 5 6 7 8 11 10 8 12 13 11 7 6 6 8 5 5 8 4 1 2 6 6 5 6 5 9 12 11 10 11 14 15 15 16 16 18 18 16 17 16 16 15 16 16 15 14 13 11 12 7 5 7 8 8 8 8 11 13 14 16 17 15 14 14 14 14 14 15 16 15 14 15 15 14 14 14 14 14 14 13 13 14 14 13 14
4 3 5 7 9 10 11 11 8 8 11 11 4 3 3 1 4 5 3 3 2 6 9 7 8 9 12 12 11 11 10 11 13 15 14 14 16 16 17 17 17 18 17 17 16 15 14 14 12 13 12 10 9 7 9 9 10 8 9 11 13 15 15 14 14 15 15 15 15 16 15 16 15 15 14 14 14 14 14 14 13 13 14 14 14 14 13
3 3 3 8 8 8 10 6 1 4 3 3 4 1 8 5 4 2 0 1 4 7 8 8 10 9 7 8 10 10 12 11 12 14 13 13 13 15 15 15 15 16 16 15 15 14 14 11 11 12 10 10 9 10 6 8 10 12 14 16 16 16 16 16 16 15 15 15 16 15 16 16 15 14 14 14 15 14 16 15 13 13 15 14 14 14 13
2 2 4 4 5 4 8 3 5 4 4 5 6 4 4 7 7 1 1 2 4 6 8 9 9 8 7 7 7 7 9 10 12 12 12 12 11 12 13 14 15 15 13 12 12 12 12 13 12 10 7 8 10 7 5 9 8 12 11 12 11 12 11 11 11 12 13 15 15 16 15 14 14 14 15 16 16 15 13 13 13 14 14 15 14 14 14
1 2 2 4 3 11 3 1 1 2 3 6 4 5 5 5 7 7 6 7 8 8 5 6 5 4 3 7 9 10 10 8 9 9 10 11 12 14 13 13 12 13 14 16 16 17 14 15 12 11 10 10 10 8 9 6 7 6 12 11 11 11 11 11 12 11 12 13 14 14 14 14 14 15 16 15 15 14 14 14 15 15 15 15 14 14 15
0 2 2 0 9 3 7 6 2 3 2 5 2 3 5 5 4 4 2 6 5 9 11 9 7 5 6 3 9 11 11 8 8 9 9 11 11 12 13 13 11 12 13 12 13 13 12 11 10 10 11 11 10 10 7 7 6 7 7 11 13 13 13 13 14 14 14 15 15 14 14 14 15 15 15 15 15 14 13 13 12 12 12 12 14 14 14
3 3 7 10 7 12 11 8 2 2 3 4 2 2 2 3 4 5 4 4 6 8 10 13 13 12 5 8 2 11 13 12 8 7 6 7 8 9 12 13 12 11 10 12 13 12 11 10 12 13 14 12 11 10 9 6 6 8 8 9 10 11 12 13 13 13 13 14 14 15 15 15 16 16 16 15 14 12 13 13 13 13 14 13 13 13 14
5 4 3 3 4 7 2 0 1 3 5 6 4 1 3 1 6 5 4 6 7 7 8 11 14 12 8 1 2 9 15 12 11 9 5 6 7 10 8 10 11 9 10 10 11 13 15 13 11 12 13 13 13 11 11 9 8 8 7 10 10 10 11 12 12 12 12 13 14 14 14 16 17 16 15 13 14 13 14 14 14 14 12 12 12 13 14
1 3 4 4 6 7 3 4 2 5 4 5 5 1 4 1 4 5 4 5 5 5 6 8 10 8 4 5 4 8 14 14 11 10 7 7 7 7 7 10 12 12 11 10 12 12 12 13 12 11 11 13 13 11 11 12 11 10 10 8 7 10 11 11 11 12 12 13 14 14 15 17 15 15 15 14 12 12 13 13 13 12 11 12 12 12 13
4 4 6 8 4 5 1 2 2 5 6 4 2 3 3 1 6 6 5 6 6 6 4 4 4 4 5 8 9 12 14 14 12 10 9 10 9 9 10 7 9 9 7 9 11 12 12 13 14 11 11 11 13 12 11 11 11 11 11 9 9 8 8 11 11 12 13 14 15 15 16 15 13 14 12 11 12 13 13 12 12 12 11 12 13 13 12
8 9 7 4 5 1 1 4 7 7 5 2 2 9 1 1 4 5 3 5 5 5 6 3 4 1 3 8 11 12 12 13 12 10 9 8 7 7 9 10 10 8 7 7 9 11 10 11 12 11 10 11 11 12 12 11 11 11 12 12 12 11 10 10 11 14 14 14 16 16 15 14 14 13 12 13 13 13 13 12 12 12 13 12 12 13 12
5 6 7 8 5 1 2 5 8 4 0 2 8 1 1 3 4 4 3 3 5 5 6 5 4 5 5 9 11 12 12 12 12 12 12 11 9 5 4 8 9 10 9 8 8 10 11 11 10 10 11 11 10 11 12 13 12 11 13 13 12 13 13 12 12 11 14 14 14 14 14 13 12 13 13 13 12 13 12 12 14 14 13 11 12 12 12
2 2 4 3 7 1 4 7 3 1 1 2 2 4 3 2 3 3 2 2 4 5 7 7 8 8 8 9 12 12 12 12 12 12 12 12 13 10 7 6 8 9 9 10 9 10 10 10 9 9 10 12 13 12 12 14 13 12 12 12 13 13 13 13 12 11 11 14 14 11 12 14 15 15 13 13 13 12 12 12 13 14 13 12 12 12 12
2 1 3 3 1 3 3 2 1 2 1 3 3 3 5 3 3 3 3 3 4 5 6 9 9 9 9 8 9 12 11 11 11 11 12 13 13 11 9 8 8 9 10 10 9 9 9 9 9 8 8 10 12 14 17 14 12 13 12 12 12 13 12 12 11 11 11 12 13 13 14 14 15 15 14 13 12 11 12 12 11 12 12 12 12 12 13
4 5 5 3 3 4 4 3 6 4 3 3 2 3 3 4 4 2 4 5 5 5 8 9 9 11 9 9 9 11 12 12 12 12 14 14 14 12 11 10 9 8 9 12 12 10 9 11 9 8 7 9 13 15 15 14 14 14 13 12 11 12 12 11 11 10 10 10 11 13 13 14 14 14 14 13 12 11 11 11 12 12 13 12 13 12 11
4 7 11 7 3 3 3 3 0 2 3 3 3 4 5 4 5 5 6 6 6 7 6 9 9 8 9 11 10 10 12 13 13 12 13 14 13 12 11 10 11 10 9 11 12 12 13 11 10 8 8 9 13 14 14 14 14 14 13 12 12 12 11 10 11 11 11 11 11 12 13 12 14 13 14 13 13 12 11 12 12 13 12 12 12 12 12
2 5 1 2 2 2 5 5 4 2 2 2 4 4 4 6 8 8 6 7 6 6 5 7 10 11 9 10 11 10 11 12 12 12 12 14 13 14 14 12 11 10 10 10 12 13 13 11 10 10 10 9 11 12 13 13 13 14 13 12 12 11 12 11 11 10 11 10 10 11 12 11 12 12 12 12 13 13 13 13 13 13 12 12 12 12 13
4 7 4 4 2 4 6 4 1 4 5 5 4 4 6 7 7 7 7 6 6 4 7 6 9 11 10 10 11 11 11 10 11 11 12 13 15 14 14 14 11 10 9 10 11 13 13 12 10 10 10 11 12 13 13 13 14 15 14 12 11 11 13 12 11 10 10 14 14 10 11 12 11 10 11 12 14 14 14 14 13 12 11 12 13 13 13
5 4 7 5 5 6 2 1 4 3 4 4 7 7 8 8 9 8 8 5 7 7 8 7 9 12 11 10 11 12 12 11 10 11 12 13 14 15 15 14 13 10 8 9 11 12 13 12 11 11 10 11 12 13 13 13 13 14 15 14 11 12 11 11 11 10 10 10 11 11 11 11 12 13 14 14 13 12 13 12 13 14 14 14 13 13 12
5 7 5 1 4 6 4 5 7 6 4 4 6 7 8 8 9 9 10 9 7 7 8 8 9 11 11 10 10 12 12 13 12 11 12 13 15 15 13 13 13 10 7 7 9 11 12 11 12 11 11 11 12 12 13 13 13 13 14 14 12 11 10 10 11 10 9 9 10 10 11 12 11 7 8 9 2 9 12 16 18 19 15 14 14 12 11
7 5 6 5 6 7 7 7 6 5 4 5 6 7 7 7 8 9 11 12 11 9 9 8 10 11 11 12 11 13 13 13 12 12 12 13 14 14 13 14 14 11 8 7 8 11 11 11 12 11 11 12 13 13 13 13 14 13 13 12 11 9 9 8 9 10 8 9 9 10 12 13 12 11 7 5 8 11 5 2 12 17 17 18 16 15 13
6 4 5 5 5 6 6 6 5 5 4 4 6 6 6 8 9 10 11 10 11 11 10 9 9 11 12 12 12 15 16 15 15 15 13 13 14 15 14 13 13 11 9 9 9 10 10 11 12 12 12 11 12 14 14 14 13 13 12 12 12 9 7 7 6 6 5 3 3 8 10 10 10 12 12 11 5 2 5 7 5 9 15 16 16 15 16
6 3 4 5 5 7 6 6 5 5 4 3 5 7 7 8 9 10 12 12 9 11 11 11 10 11 12 13 13 15 15 15 13 14 17 16 16 15 13 12 10 9 9 8 8 9 9 10 12 12 12 12 11 13 14 14 14 13 12 12 13 10 7 5 2 2 3 2 5 5 3 1 8 8 8 9 11 10 2 11 7 2 9 8 8 10 12
5 4 4 4 3 5 4 1 4 4 4 3 5 7 10 12 14 15 13 12 11 10 12 11 12 12 12 13 13 14 15 15 16 17 14 13 12 12 12 12 11 8 7 7 8 9 9 10 11 12 12 12 12 14 14 14 14 12 11 12 11 9 6 6 6 4 2 2 3 4 7 7 2 2 6 11 15 14 11 5 2 7 10 5 7 9 9
4 4 3 1 3 4 3 5 6 2 2 3 5 8 9 8 12 11 11 11 12 12 12 13 13 12 12 12 14 15 14 15 14 13 12 12 13 12 12 11 9 7 6 7 8 9 11 11 11 12 12 11 12 13 14 15 13 10 10 8 8 10 15 10 6 6 4 1 2 3 4 4 6 7 6 6 7 5 4 8 7 7 8 3 1 7 9
4 3 4 3 4 3 5 5 3 1 2 5 7 9 9 8 9 10 11 12 12 10 10 10 11 12 12 11 11 12 13 13 14 12 12 13 11 10 10 10 8 5 6 7 8 8 8 8 11 12 12 11 13 14 14 14 14 10 7 6 7 7 5 7 6 4 5 6 6 3 3 4 6 8 8 8 10 10 6 4 7 9 8 5 0 4 6
1 1 2 4 5 6 4 1 1 1 5 6 7 8 8 9 10 11 11 10 10 11 11 11 11 12 12 12 11 12 12 12 12 13 13 11 10 10 11 9 6 5 5 7 7 7 8 8 9 11 12 12 14 15 14 14 12 9 9 6 6 6 6 5 3 4 5 5 6 7 7 7 7 7 8 8 8 7 7 9 8 7 7 3 2 2 6
1 2 2 2 2 2 2 2 2 3 5 6 8 9 9 10 12 11 11 12 11 12 12 12 12 12 12 12 12 12 13 12 12 12 12 10 10 10 9 6 4 3 4 5 7 8 8 8 9 10 12 13 14 14 13 13 10 8 8 9 7 6 7 7 4 5 5 6 5 8 9 9 6 6 7 8 8 7 7 8 8 8 8 6 5 6 9
2 1 2 2 2 2 4 4 3 4 5 5 7 9 9 9 11 12 11 11 12 12 13 12 12 13 12 12 11 11 12 12 12 12 11 10 11 11 7 5 3 4 4 6 6 7 8 8 8 9 11 12 13 14 13 12 9 8 7 7 7 10 12 12 9 6 7 7 7 8 7 8 8 8 8 7 7 7 7 7 7 7 5 5 7 9 10
1 3 4 3 3 3 3 3 3 4 5 5 6 8 9 10 12 13 13 13 13 14 14 13 13 12 12 11 11 11 11 11 11 11 10 11 11 8 6 4 4 5 4 4 5 7 7 7 9 10 11 11 12 13 11 11 8 8 7 8 7 7 8 14 8 7 7 7 8 9 9 9 9 9 9 9 9 9 9 9 9 8 8 9 10 10 5
1 3 3 2 3 2 3 4 4 5 4 5 6 7 8 8 8 10 12 13 13 12 12 12 12 12 12 12 12 11 11 10 11 11 11 11 10 5 5 5 4 4 1 2 6 6 7 7 8 10 11 11 11 11 10 9 8 7 8 8 7 7 8 9 10 9 6 7 7 8 8 9 9 10 10 10 8 6 6 6 7 8 9 9 7 5 5
5 6 5 3 3 4 4 5 4 4 4 4 6 7 8 8 8 10 12 12 12 13 12 12 13 14 14 13 12 11 11 10 9 10 11 7 3 5 3 4 3 1 2 3 5 6 6 7 7 8 9 9 10 9 8 8 8 7 8 7 7 8 8 8 9 7 8 7 5 5 7 9 10 10 10 10 10 10 10 11 11 10 9 7 5 3 1
3 3 4 3 3 3 4 4 4 4 3 5 5 6 7 7 8 10 13 13 13 12 13 13 14 13 13 11 9 10 9 10 10 9 4 7 8 7 6 5 3 1 1 3 6 7 8 8 7 8 9 8 9 9 7 9 9 8 9 8 9 8 7 7 8 8 8 8 8 7 4 9 9 8 10 12 13 13 13 13 12 11 10 9 7 6 7
0 0 1 1 3 3 4 5 5 4 4 5 6 7 8 9 10 11 13 13 12 12 13 14 13 12 9 3 4 4 2 1 2 7 10 9 8 6 7 7 5 4 4 5 7 8 9 8 13 15 8 8 9 9 8 8 8 9 9 9 9 8 8 7 7 8 8 9 9 8 9 2 7 7 10 11 11 11 10 10 10 10 10 10 9 9 9
1 1 2 3 2 2 4 5 4 3 4 4 5 6 8 9 9 10 11 12 12 12 13 14 11 9 8 5 7 8 9 9 8 8 8 7 7 9 9 8 7 6 6 6 8 8 8 9 13 15 9 7 8 9 9 14 7 8 9 10 10 9 9 9 8 8 9 10 10 9 9 6 4 5 5 7 8 7 8 7 7 7 6 7 7 7 6
2 2 2 1 0 1 2 3 3 3 3 3 3 4 7 8 8 9 11 11 11 12 12 12 12 10 8 8 12 11 9 9 8 9 8 8 8 10 10 9 8 6 6 6 7 7 7 10 14 9 7 8 8 9 11 16 13 9 8 9 9 10 10 10 9 9 9 9 10 10 10 8 3 7 7 8 9 9 9 9 9 8 8 9 9 9 9
1 2 3 1 1 1 1 1 2 1 3 3 4 5 6 7 7 9 9 10 11 12 12 12 12 12 11 11 12 12 12 11 9 9 8 8 8 11 10 8 6 6 5 5 7 6 8 9 7 7 7 8 9 9 11 14 13 9 9 8 9 10 11 10 10 9 10 9 10 11 10 8 5 9 9 9 10 10 10 11 10 9 9 8 9 10 10
2 2 2 0 0 1 2 2 2 3 3 2 3 4 5 6 7 8 9 10 11 12 11 10 11 11 11 10 11 12 11 11 10 9 8 7 7 9 8 8 8 7 8 11 8 6 11 15 9 7 7 7 8 8 9 13 11 8 8 8 8 9 10 11 11 10 10 11 11 13 10 8 7 9 10 10 10 10 10 10 10 9 9 10 11 10 11
4 3 1 0 0 1 2 2 1 3 3 3 3 4 5 5 6 7 9 10 10 10 10 10 10 11 11 11 10 8 9 10 10 10 7 6 8 7 7 8 7 6 8 8 8 9 12 11 9 7 7 7 7 10 8 12 9 7 8 9 9 9 9 9 10 9 9 9 9 9 9 9 8 11 10 10 10 9 9 10 10 10 9 10 10 10 11
3 2 1 0 0 2 3 2 1 1 3 3 3 3 5 6 6 7 7 8 9 9 9 10 14 12 10 10 10 9 8 8 8 9 10 10 9 7 7 7 7 6 12 11 11 9 8 8 9 9 8 7 8 14 13 9 8 8 8 9 10 10 10 10 10 9 10 9 9 9 10 8 9 10 11 10 10 9 9 9 9 10 10 10 10 10 10
4 3 2 1 1 2 3 3 1 1 2 2 3 3 3 4 5 5 7 7 8 8 8 8 9 11 10 10 10 10 10 9 8 7 9 10 10 9 7 6 6 7 12 9 8 7 7 7 8 8 14 12 11 15 14 9 8 8 8 8 9 10 11 10 10 9 10 10 10 10 10 10 10 10 11 11 10 9 10 10 10 10 10 10 11 11 12
4 3 2 1 1 2 2 3 2 1 2 3 3 2 2 3 4 6 7 7 8 9 9 8 8 8 8 8 8 8 9 9 9 7 5 6 8 8 7 6 6 9 14 8 8 8 8 8 9 14 20 20 20 17 9 8 8 8 8 9 9 8 9 10 10 10 10 10 10 9 9 9 9 9 11 11 10 9 10 10 10 10 10 11 11 12 12
4 4 3 2 2 1 3 4 4 2 0 1 2 2 2 3 4 5 5 7 8 9 9 9 8 8 7 7 7 7 7 7 7 7 7 7 7 7 7 9 8 8 10 12 8 9 8 9 14 20 18 20 19 17 9 9 9 9 9 9 8 8 9 10 11 10 11 9 8 9 9 9 9 9 10 11 10 9 10 11 11 10 11 11 11 12 11
4 4 4 4 2 3 3 5 3 1 3 1 0 1 1 2 3 3 5 5 6 7 7 8 8 8 8 8 7 7 8 9 9 8 7 7 7 5 6 8 7 9 14 14 8 8 8 18 19 18 19 19 17 11 9 10 10 9 9 10 10 10 9 8 9 9 10 10 10 9 9 9 10 10 9 9 9 10 10 10 11 11 11 11 11 10 10
5 4 4 4 2 2 2 2 4 5 3 2 0 0 1 2 2 3 4 4 5 6 7 7 8 8 9 9 8 7 8 8 9 9 8 7 8 8 9 12 12 14 12 9 9 9 9 11 15 18 17 17 16 10 9 9 10 9 10 10 9 9 9 9 9 9 9 9 10 11 12 11 10 10 11 11 11 10 10 11 11 11 10 11 11 12 12
5 5 4 4 3 2 2 4 5 4 2 1 1 0 1 2 3 3 3 4 5 6 7 7 7 8 9 9 9 9 8 7 9 10 8 8 7 7 7 7 10 13 14 12 14 15 20 19 19 19 18 15 9 9 9 10 9 9 10 10 10 10 9 9 9 9 9 9 10 9 9 9 10 10 10 10 10 11 11 11 11 11 10 10 10 11 12
6 5 4 3 2 1 1 2 4 3 1 1 2 1 1 1 2 3 3 4 5 6 6 7 8 8 8 9 9 8 8 8 8 8 7 8 8 8 8 11 15 15 11 9 8 8 15 18 18 19 18 14 9 9 9 9 10 10 9 10 10 10 10 9 9 9 9 10 9 9 9 10 10 10 10 10 11 10 10 11 12 11 10 10 11 11 11
5 4 4 5 4 3 3 3 5 3 2 2 3 2 2 3 3 3 3 3 5 6 6 6 6 6 6 6 7 7 7 7 8 8 8 8 9 8 9 9 11 15 13 8 8 8 11 17 16 17 12 9 9 9 9 9 9 9 9 10 9 9 11 11 11 12 10 10 10 10 10 9 10 12 11 10 10 10 11 11 11 14 17 12 11 11 11
6 6 6 4 4 3 3 4 5 5 3 2 2 2 2 2 2 3 4 4 3 5 5 6 6 5 5 5 5 5 6 6 6 8 7 8 8 10 11 9 10 10 10 10 8 7 7 7 8 10 10 9 9 10 10 10 9 11 11 10 11 9 10 10 9 9 10 9 9 10 10 9 10 10 10 10 10 10 11 11 11 11 10 10 10 10 10
4 4 5 5 4 3 2 4 5 3 3 2 2 2 2 2 3 4 4 6 4 4 4 4 6 5 4 4 5 5 5 5 5 4 5 6 6 6 8 10 8 9 9 8 8 8 8 9 11 13 12 10 9 10 12 14 11 10 11 11 10 11 11 11 10 10 9 10 9 9 10 9 9 10 10 10 10 10 10 11 11 10 10 10 10 10 10
Wind_Direction
322 333 330 334 325 314 309 312 313 320 330 319 328 304 299 312 267 254 283 326 335 315 4 348 12 20 25 32 51 33 16 16 19 20 19 15 14 17 25 25 26 28 26 16 12 24 25 351 260 227 216 208 203 203 198 194 188 188 184 186 190 192 194 198 202 202 202 203 205 204 205 207 211 215 215 215 215 215 215 216 216 215 214 213 213 214 215
329 328 325 322 314 311 311 307 309 310 312 308 301 285 294 289 271 269 282 317 310 7 345 335 13 24 32 23 25 42 29 13 17 27 25 16 12 14 15 17 22 25 21 15 14 13 20 18 12 349 255 239 235 213 206 198 194 188 181 188 189 192 196 200 200 200 200 201 202 202 203 207 209 211 214 214 214 215 216 216 216 215 215 215 214 214 215
314 323 320 308 297 311 312 316 313 310 308 302 289 279 273 284 298 328 336 360 331 22 355 334 20 36 42 43 36 37 37 14 20 27 25 20 14 9 7 10 18 17 13 13 13 14 12 8 4 10 1 324 217 214 209 205 201 184 185 187 190 194 199 199 196 196 197 201 200 201 204 206 207 209 212 212 214 215 216 215 215 214 214 215 216 215 215
306 338 339 322 327 316 308 305 311 302 300 301 312 279 296 6 292 310 355 11 313 321 344 343 18 29 36 38 28 33 36 24 23 24 23 19 14 9 5 7 9 10 7 9 8 6 4 4 1 1 351 354 337 230 198 201 188 176 184 189 194 198 200 196 195 196 199 199 200 203 202 205 206 207 208 211 214 215 215 216 215 213 214 215 216 216 216
250 269 341 325 311 336 309 288 267 294 313 315 334 58 43 15 291 105 151 237 5 329 344 358 6 11 30 44 37 34 25 26 30 23 18 12 12 7 5 8 5 4 3 0 358 358 360 358 357 347 343 345 10 358 299 212 189 194 193 195 196 199 198 196 196 196 196 198 202 203 204 204 204 204 206 210 214 215 216 216 213 213 215 214 216 216 216
169 48 328 331 360 329 245 210 46 2 46 20 15 24 44 8 21 61 0 341 329 347 353 6 356 0 21 29 53 54 48 26 19 19 13 7 0 1 11 10 4 360 354 352 353 349 350 353 348 334 334 349 356 2 25 315 235 201 205 207 207 206 204 203 201 200 198 199 202 204 203 202 201 202 204 209 212 214 216 214 215 217 216 216 215 215 216
253 147 41 355 267 240 269 38 353 8 59 42 82 86 44 37 15 10 360 355 351 341 346 346 341 331 337 58 47 37 49 53 38 16 6 1 358 359 1 6 14 2 351 347 348 347 352 346 337 340 346 351 340 350 353 317 299 243 194 198 201 199 199 201 200 200 201 203 206 204 202 201 201 204 205 209 210 211 212 213 214 215 215 215 216 215 216
163 84 116 214 236 243 324 308 80 330 41 13 61 99 60 8 28 333 346 335 338 340 339 345 341 336 295 135 57 41 29 33 45 30 7 353 354 0 354 353 2 0 355 349 340 336 333 337 331 342 344 342 336 336 330 334 293 282 256 210 205 206 207 206 206 204 201 202 203 201 200 200 203 205 206 206 208 207 211 215 216 216 218 218 217 217 216
209 168 176 227 307 313 293 283 7 24 34 327 36 247 254 360 334 4 338 332 347 350 343 339 340 332 302 187 106 33 22 10 13 19 12 354 343 351 350 349 352 350 345 347 338 331 326 331 349 352 337 334 337 327 324 323 315 275 250 254 239 219 213 212 212 212 212 209 206 203 199 200 204 206 206 206 207 202 209 213 213 213 215 214 216 215 215
177 212 255 310 294 261 287 293 69 21 357 322 305 235 266 58 337 332 349 344 341 344 350 346 342 330 341 133 263 5 1 356 354 355 348 1 356 341 330 343 342 345 343 341 343 337 331 338 350 343 330 332 332 330 325 325 320 309 276 247 239 233 229 221 216 216 216 213 210 206 204 205 205 206 205 205 204 198 205 209 215 216 213 215 215 215 214
72 178 208 225 234 246 166 238 327 327 327 317 291 144 254 127 306 315 320 339 328 338 352 351 350 6 348 278 310 353 347 342 340 347 343 334 341 333 337 335 337 343 342 341 338 335 333 334 340 337 332 326 326 326 327 326 320 307 296 280 255 242 240 232 222 217 217 216 213 209 208 211 207 204 204 204 201 198 206 208 215 213 211 214 216 216 216
214 220 219 234 218 257 280 276 296 311 305 320 61 311 273 44 311 307 320 322 327 321 343 353 12 19 319 308 316 336 337 331 329 335 339 335 335 331 334 320 331 332 330 331 337 339 336 330 325 333 333 326 320 319 323 320 311 300 297 296 298 291 257 237 232 223 219 215 213 211 211 211 206 206 203 200 199 201 204 206 210 211 212 212 214 216 214
246 232 252 282 290 301 52 340 322 305 285 28 197 235 203 243 280 293 297 326 322 320 332 345 337 248 281 297 307 319 324 322 325 328 326 325 323 319 318 320 327 325 336 333 331 328 323 319 324 330 333 328 320 319 315 310 301 296 297 300 299 291 283 276 242 226 223 219 213 211 210 207 205 204 200 202 200 202 204 204 207 209 212 212 214 217 213
241 231 226 239 248 233 315 310 300 268 304 205 214 170 191 237 274 259 294 341 322 325 324 317 295 292 299 307 312 316 317 315 316 319 322 320 319 304 283 308 325 326 325 330 317 319 322 323 327 331 328 321 315 311 309 299 294 292 297 295 292 288 286 279 274 250 224 218 215 213 209 202 201 204 203 201 201 203 203 202 204 208 209 211 212 215 215
287 262 259 252 255 110 20 328 335 348 163 231 337 301 295 248 272 308 319 313 307 321 313 310 304 308 314 313 311 308 308 311 312 316 321 321 316 316 314 314 323 321 321 322 321 318 319 319 326 328 325 317 314 309 298 294 294 291 289 288 285 285 281 281 277 268 246 222 214 211 206 201 200 204 200 200 202 200 201 202 205 207 209 209 210 214 214
175 212 216 225 127 282 301 57 212 275 266 282 329 357 326 326 323 335 320 311 299 305 302 306 305 302 305 305 304 304 304 304 306 310 314 313 310 309 309 311 316 326 318 315 316 317 317 319 323 326 323 316 310 306 300 300 297 291 287 279 279 278 278 276 277 271 256 233 216 209 205 200 201 201 199 199 199 198 197 199 202 207 210 209 211 213 214
151 207 227 234 210 231 253 230 253 259 282 327 335 2 306 312 309 294 315 296 293 290 294 291 294 301 299 299 304 306 309 310 310 310 311 309 308 308 311 313 315 316 313 313 313 315 319 320 321 322 320 310 305 300 299 303 296 292 286 284 275 270 270 270 270 273 264 242 220 210 206 199 199 200 199 193 196 197 194 198 203 208 210 208 211 214 215
253 263 251 269 279 273 295 278 259 280 316 309 353 336 326 304 297 306 295 290 287 290 283 288 290 286 297 301 305 305 306 306 304 305 302 304 306 306 307 309 313 311 311 309 310 316 323 324 321 322 318 312 303 298 298 296 291 286 281 279 273 267 271 274 274 265 260 245 224 210 202 199 200 197 193 190 194 193 193 199 204 208 209 208 212 215 218
33 286 339 180 254 302 313 299 299 298 297 304 337 325 311 302 302 299 293 284 284 279 287 285 288 292 298 298 300 302 302 299 301 301 300 299 303 309 307 305 306 308 312 312 314 319 320 324 320 318 315 311 302 299 298 293 286 283 280 268 269 278 279 279 271 260 244 237 222 210 203 199 199 195 193 191 192 192 195 201 204 207 206 206 211 213 218
191 237 236 237 242 237 268 234 300 316 326 318 315 301 295 296 293 291 291 295 288 291 291 288 293 293 293 292 293 295 292 294 297 298 299 299 301 301 299 299 298 299 304 309 312 317 318 318 314 310 311 315 313 309 305 304 305 305 293 279 279 280 282 284 279 262 244 224 214 205 200 197 194 195 194 194 193 196 199 201 201 204 205 209 212 214 217
251 279 278 278 306 306 284 288 320 281 277 298 303 301 301 296 294 293 291 280 284 285 282 286 287 289 287 286 290 290 290 290 291 295 295 293 291 294 299 298 296 294 297 304 309 311 311 312 310 308 309 315 315 314 313 311 313 312 307 293 282 283 283 284 279 263 240 224 209 203 196 196 195 192 192 193 198 207 210 200 198 198 203 208 210 212 212
263 239 241 139 307 288 287 273 274 282 276 290 291 293 292 294 297 299 297 293 283 277 276 280 280 282 287 288 289 286 286 285 287 288 287 288 288 289 289 291 289 285 288 295 302 303 304 309 308 306 312 316 317 315 314 316 315 309 304 301 294 289 292 291 291 269 239 224 206 201 194 192 193 187 36 45 96 203 204 202 202 204 198 206 206 203 208
243 225 219 199 209 246 251 257 256 251 273 282 284 281 281 287 291 293 294 294 291 283 277 266 269 273 279 284 284 284 284 284 284 281 279 282 285 286 287 288 286 281 285 292 295 298 305 313 308 306 310 312 319 316 314 312 312 306 300 296 292 286 293 298 314 298 246 217 204 200 197 193 190 177 155 124 97 104 99 182 205 202 204 210 206 200 200
250 225 227 201 186 229 252 241 243 257 254 258 265 269 276 282 287 289 284 278 279 281 275 271 264 272 277 277 282 282 283 283 283 281 277 273 271 275 278 275 274 278 288 296 298 297 306 313 307 307 312 313 318 315 313 311 307 301 295 291 289 283 285 291 319 343 329 322 250 212 200 187 173 170 177 175 199 15 126 165 188 211 210 207 203 203 206
228 211 196 202 208 233 244 249 244 239 250 262 279 284 284 286 286 288 285 284 280 281 283 279 275 270 271 273 271 271 276 277 275 277 278 276 274 274 275 276 274 274 280 285 289 295 302 308 307 308 311 315 317 315 313 308 305 299 291 285 286 283 269 260 264 340 331 75 104 71 40 143 169 164 162 173 180 201 328 21 21 192 181 188 218 232 226
213 232 215 204 195 233 248 264 261 246 248 261 275 284 289 292 295 296 292 291 286 279 275 274 276 271 269 272 271 273 273 273 277 279 276 273 273 272 272 272 272 268 272 280 286 293 298 308 308 306 307 315 321 317 312 309 303 289 283 283 283 276 263 244 233 206 192 169 121 129 141 140 147 203 198 188 193 196 188 163 88 26 23 70 161 195 222
216 203 174 271 285 274 227 222 251 217 257 264 272 280 280 276 289 288 283 277 272 271 271 275 274 273 273 269 274 271 269 272 271 268 268 272 273 270 269 268 263 261 272 283 287 290 303 313 308 303 302 315 322 317 312 310 300 279 284 297 295 282 281 270 209 217 179 346 22 74 106 111 124 116 85 31 359 323 241 175 163 179 196 225 41 144 177
203 222 173 207 243 242 250 236 234 250 268 288 294 291 287 287 287 290 286 286 287 281 277 276 278 279 275 270 265 266 267 268 270 270 269 271 274 275 270 261 251 255 273 278 283 290 300 304 302 301 305 324 327 319 316 316 313 314 311 306 302 299 283 270 237 205 196 191 171 161 193 184 155 146 158 164 181 203 200 199 195 186 207 202 229 322 140
229 232 198 202 231 243 244 135 115 300 295 295 293 290 295 295 295 293 292 290 290 291 281 275 270 272 272 272 266 265 265 263 263 264 266 268 269 271 267 249 236 252 270 277 283 286 290 298 301 305 318 332 327 322 321 323 319 333 329 318 308 299 279 264 227 188 197 203 189 178 173 172 166 170 188 193 183 172 174 183 201 210 214 161 72 345 325
229 255 283 264 262 222 140 171 234 264 282 295 301 302 300 298 301 298 297 296 294 289 284 282 278 274 271 271 269 266 267 263 261 265 266 266 270 271 253 226 235 267 275 277 278 285 293 300 309 319 328 328 323 320 323 325 323 340 331 328 310 299 286 272 237 198 186 188 200 172 170 172 182 181 179 180 176 174 175 189 197 199 205 188 175 204 214
264 279 281 268 315 161 188 207 226 251 275 283 293 297 299 298 290 295 298 299 292 287 287 286 282 280 276 271 268 267 266 264 263 260 260 265 268 261 228 188 191 251 273 283 285 297 299 310 319 325 323 322 323 324 329 329 330 340 335 332 326 314 313 305 265 225 193 192 185 183 182 179 178 175 170 162 167 172 179 183 192 197 194 180 200 207 217
304 317 304 294 277 247 205 224 233 263 268 284 295 305 307 307 310 313 307 301 293 290 289 290 288 283 278 273 270 264 262 263 264 264 263 261 258 237 196 179 205 236 259 287 307 307 308 323 333 328 323 326 331 328 331 331 342 345 347 344 343 335 326 333 319 260 212 200 191 189 189 180 175 162 160 170 181 185 184 183 186 188 189 197 203 212 183
236 300 318 313 318 309 242 224 237 262 272 284 293 298 298 296 301 304 298 295 292 294 294 293 289 284 277 272 268 262 256 254 253 255 255 251 238 194 164 184 206 214 227 327 308 306 318 333 327 322 326 333 333 328 334 338 356 354 355 345 352 343 352 349 340 328 284 233 205 199 189 183 176 176 179 177 176 176 173 185 198 193 198 199 196 170 158
208 220 214 212 218 236 239 251 234 254 261 266 276 296 303 302 304 305 298 295 299 304 301 300 293 289 283 271 260 256 251 246 246 242 237 227 154 123 116 97 61 75 104 339 324 328 330 329 329 328 323 333 332 326 333 357 358 2 357 357 356 0 0 357 352 352 345 329 297 221 186 178 176 182 176 169 173 179 181 185 188 191 180 160 146 132 7
197 219 202 207 225 216 207 204 225 237 253 272 294 307 310 309 313 307 311 315 312 308 304 298 294 286 273 257 248 244 239 234 235 239 183 121 110 98 97 86 82 44 24 8 354 342 332 327 325 330 333 338 336 332 347 17 12 2 8 3 3 3 5 3 8 4 359 341 335 317 243 173 180 176 166 164 169 172 179 178 175 168 156 145 144 135 131
123 312 279 235 264 225 204 214 222 234 250 262 288 300 315 319 319 316 315 312 308 310 311 311 304 291 289 222 209 233 240 278 124 110 105 101 99 101 84 75 61 49 22 6 359 342 332 329 346 356 350 346 343 338 3 21 21 16 13 13 11 4 2 9 14 12 10 8 356 352 328 269 135 140 147 152 153 159 156 158 159 156 153 151 149 138 130
205 196 225 230 262 229 215 227 217 236 250 272 298 296 309 319 316 314 315 313 319 326 325 322 314 328 356 10 63 47 38 43 61 78 89 91 89 79 70 63 46 37 22 10 350 338 330 336 355 3 358 351 347 342 9 24 26 25 20 19 16 8 5 8 15 23 22 14 14 359 347 323 78 86 97 114 123 123 121 122 111 100 97 94 89 83 80
232 210 209 226 260 359 311 239 223 227 273 286 307 314 315 313 316 321 318 319 327 333 334 337 342 343 358 22 49 45 36 30 50 64 61 64 70 75 64 56 42 32 24 14 341 337 331 350 2 7 360 358 350 349 7 26 33 37 32 28 26 18 11 7 12 18 26 26 23 12 358 331 28 81 73 72 75 74 81 85 86 94 101 102 101 97 96
32 12 39 52 29 332 346 288 217 255 271 281 301 294 296 310 317 320 323 328 334 342 343 346 353 0 6 28 43 45 40 33 34 50 56 52 58 64 62 50 40 24 10 0 350 343 360 8 2 8 11 1 359 3 12 21 29 39 41 36 32 30 22 14 15 14 20 24 35 26 5 341 23 69 72 76 80 86 85 91 98 103 98 96 95 97 95
126 126 163 231 150 314 342 337 259 222 242 252 266 277 296 322 326 327 331 338 341 346 347 350 5 10 4 17 40 43 41 39 34 38 45 43 52 59 63 49 33 20 17 17 5 352 16 20 18 14 11 6 14 7 16 22 22 31 40 41 38 32 27 25 18 17 19 26 31 43 10 344 23 59 68 70 74 79 85 87 81 78 84 87 87 88 89
158 164 222 239 270 287 314 341 295 219 229 249 273 294 306 313 317 333 341 342 340 345 350 0 12 17 15 10 20 38 47 45 40 39 30 38 47 47 47 40 18 13 19 22 16 16 22 23 27 24 16 16 17 30 21 26 21 25 40 47 47 44 35 28 25 21 16 22 26 36 29 345 15 48 58 64 71 72 74 80 84 81 76 76 79 85 89
172 169 198 192 292 300 307 326 85 223 253 248 273 302 307 316 317 324 330 337 343 348 358 1 27 32 23 16 17 25 32 48 52 48 43 44 40 32 37 33 9 19 28 24 16 12 11 12 23 32 33 29 34 43 43 31 27 30 39 44 50 51 49 37 33 28 22 17 26 40 49 17 19 36 48 52 55 61 68 70 74 75 79 80 79 75 81
163 163 158 186 256 303 305 316 324 262 234 242 255 277 295 312 326 333 343 348 355 355 6 5 18 28 28 22 19 21 24 20 27 40 46 42 40 32 29 13 7 27 34 32 24 7 17 16 25 29 44 46 48 47 43 37 33 35 35 42 48 52 52 46 36 33 34 29 26 28 38 47 34 33 46 47 50 54 61 64 67 74 77 77 80 77 71
164 154 172 169 246 276 283 296 287 299 263 246 241 252 295 334 340 342 343 353 0 8 15 12 18 24 26 28 30 29 24 22 21 17 37 51 46 35 21 20 8 33 39 33 28 25 24 29 35 42 45 47 48 47 43 38 39 40 43 46 46 47 51 55 49 40 38 39 34 32 31 37 48 47 53 51 44 51 63 65 63 63 72 75 74 73 74
164 188 181 206 226 263 295 296 300 288 211 236 249 280 333 339 352 349 355 5 13 17 20 23 19 22 19 19 27 30 28 28 26 22 30 41 45 40 24 38 36 32 38 41 33 28 24 36 43 45 48 48 49 48 44 40 41 45 47 48 44 46 51 57 59 55 48 40 37 39 40 40 41 46 57 61 55 51 54 64 64 61 64 67 70 76 79
175 185 182 194 211 248 263 275 303 123 144 128 46 24 30 344 348 354 352 1 10 14 14 19 23 25 26 26 22 28 33 32 29 28 30 21 33 28 37 55 51 53 49 46 37 28 26 39 40 47 50 51 51 50 47 47 48 48 48 49 50 48 47 47 54 59 59 57 53 48 44 42 45 44 46 61 64 62 57 59 66 63 64 68 71 71 73
177 185 169 187 212 240 277 359 29 73 104 93 46 342 20 27 24 22 5 5 18 23 19 19 23 31 33 36 35 34 35 39 37 30 27 23 24 31 37 44 47 52 53 50 45 40 38 42 41 42 49 55 57 57 53 51 51 51 51 50 48 49 49 46 49 55 58 59 59 62 61 56 52 51 53 52 55 61 64 65 65 60 60 64 67 67 69
176 177 189 200 204 251 3 38 56 68 89 190 207 106 26 5 30 34 15 12 19 24 26 25 28 33 38 42 42 40 34 31 49 37 20 26 27 31 33 40 48 50 50 47 51 47 44 46 47 46 44 42 46 51 55 56 55 54 55 55 56 53 51 50 50 51 53 56 57 57 57 57 58 59 56 55 55 55 57 58 63 64 60 61 63 65 71
173 176 182 182 162 140 86 62 71 84 65 13 52 57 77 38 33 26 36 26 30 31 33 31 33 34 35 38 43 38 40 34 37 43 21 26 27 28 34 43 48 50 53 50 46 47 50 50 51 52 50 48 44 43 45 50 56 59 57 59 58 58 55 53 52 51 53 53 53 57 57 61 60 61 63 63 62 59 57 62 60 61 62 63 64 64 65
160 143 131 120 110 118 119 87 80 104 119 72 76 76 59 35 40 38 51 41 46 55 42 37 34 34 30 33 32 33 27 38 40 34 27 32 37 35 32 40 48 50 51 53 54 50 48 51 54 54 51 46 47 47 49 51 48 47 50 54 56 59 58 59 57 56 56 56 54 54 55 56 59 64 64 63 63 63 63 63 64 58 55 58 61 61 61
144 137 144 147 151 152 150 131 115 120 116 108 92 84 89 80 67 73 78 66 39 58 52 47 37 28 22 28 31 30 28 21 32 47 39 29 28 44 47 43 44 49 49 48 47 48 50 51 51 50 48 48 53 56 55 53 52 52 51 49 52 54 57 56 57 57 56 55 57 58 59 57 56 56 57 59 61 62 60 60 61 61 61 60 60 60 61
143 142 140 141 144 153 143 95 101 109 101 83 78 90 94 79 66 52 57 79 64 58 62 60 59 34 26 30 33 23 21 39 31 29 39 42 37 29 32 43 46 46 45 47 47 47 46 51 56 57 57 57 56 55 56 56 55 54 53 52 55 56 58 58 57 57 54 52 52 56 60 59 59 60 59 57 58 56 58 59 59 59 59 58 58 58 60